Time,TemperatureF,DewpointF,PressureIn,WindDirection,WindDirectionDegrees,WindSpeedMPH,WindSpeedGustMPH,Humidity,HourlyPrecipIn,Conditions,Clouds,dailyrainin,SolarRadiationWatts/m^2,SoftwareType,DateUTC
2013-05-13 00:00:00,65.9,38.0,29.91,South,190,1.0,-999.0,36,-99.99,,,0.00,0,weatherlink.com 1.10,2013-05-13 06:00:00,
2013-05-13 00:15:00,67.1,38.0,29.91,SSW,193,5.0,-999.0,35,-99.99,,,0.00,0,weatherlink.com 1.10,2013-05-13 06:15:00,
2013-05-13 00:30:00,69.7,38.0,29.91,SW,215,4.0,-999.0,32,-99.99,,,0.00,0,weatherlink.com 1.10,2013-05-13 06:30:00,
2013-05-13 00:45:00,69.4,38.0,29.91,SW,236,5.0,-999.0,32,-99.99,,,0.00,0,weatherlink.com 1.10,2013-05-13 06:45:00,
2013-05-13 01:00:00,68.9,39.0,29.90,West,275,2.0,-999.0,33,-99.99,,,0.00,0,weatherlink.com 1.10,2013-05-13 07:00:00,
2013-05-13 01:15:00,67.6,39.0,29.90,SW,223,0.0,-999.0,35,-99.99,,,0.00,0,weatherlink.com 1.10,2013-05-13 07:15:00,
2013-05-13 01:30:00,66.5,39.0,29.89,SW,223,0.0,-999.0,36,-99.99,,,0.00,0,weatherlink.com 1.10,2013-05-13 07:30:00,
2013-05-13 01:45:00,66.0,39.0,29.88,SW,223,0.0,-999.0,37,-99.99,,,0.00,0,weatherlink.com 1.10,2013-05-13 07:45:00,
2013-05-13 02:00:00,64.4,38.0,29.87,SE,125,2.0,-999.0,38,-99.99,,,0.00,0,weatherlink.com 1.10,2013-05-13 08:00:00,
2013-05-13 02:15:00,63.4,39.0,29.87,SE,125,0.0,-999.0,40,-99.99,,,0.00,0,weatherlink.com 1.10,2013-05-13 08:15:00,
2013-05-13 02:30:00,62.3,39.0,29.86,SE,125,0.0,-999.0,42,-99.99,,,0.00,0,weatherlink.com 1.10,2013-05-13 08:30:00,
2013-05-13 02:46:00,60.8,38.0,29.86,SE,125,0.0,-999.0,43,-99.99,,,0.00,0,weatherlink.com 1.10,2013-05-13 08:46:00,
2013-05-13 03:01:00,60.0,38.0,29.86,SE,125,0.0,-999.0,45,-99.99,,,0.00,0,weatherlink.com 1.10,2013-05-13 09:01:00,
2013-05-13 03:16:00,59.6,38.0,29.85,SE,125,0.0,-999.0,45,-99.99,,,0.00,0,weatherlink.com 1.10,2013-05-13 09:16:00,
2013-05-13 03:31:00,59.3,38.0,29.85,SE,125,0.0,-999.0,46,-99.99,,,0.00,0,weatherlink.com 1.10,2013-05-13 09:31:00,
2013-05-13 03:46:00,59.0,39.0,29.85,SE,125,0.0,-999.0,47,-99.99,,,0.00,0,weatherlink.com 1.10,2013-05-13 09:46:00,
2013-05-13 04:01:00,58.2,38.0,29.84,SE,125,0.0,-999.0,48,-99.99,,,0.00,0,weatherlink.com 1.10,2013-05-13 10:01:00,
2013-05-13 04:16:00,57.5,39.0,29.84,SE,125,0.0,-999.0,50,-99.99,,,0.00,0,weatherlink.com 1.10,2013-05-13 10:16:00,
2013-05-13 04:31:00,57.2,39.0,29.84,SE,125,0.0,-999.0,50,-99.99,,,0.00,0,weatherlink.com 1.10,2013-05-13 10:31:00,
2013-05-13 04:46:00,60.2,40.0,29.84,WNW,287,0.0,-999.0,47,-99.99,,,0.00,0,weatherlink.com 1.10,2013-05-13 10:46:00,
2013-05-13 05:01:00,63.8,40.0,29.84,WNW,296,0.0,-999.0,42,-99.99,,,0.00,0,weatherlink.com 1.10,2013-05-13 11:01:00,
2013-05-13 05:16:00,67.2,41.0,29.83,WNW,296,3.0,-999.0,38,-99.99,,,0.00,0,weatherlink.com 1.10,2013-05-13 11:16:00,
2013-05-13 05:31:00,69.4,41.0,29.83,WSW,253,2.0,-999.0,35,-99.99,,,0.00,0,weatherlink.com 1.10,2013-05-13 11:31:00,
2013-05-13 05:46:00,69.8,41.0,29.84,West,276,3.0,-999.0,35,-99.99,,,0.00,9,weatherlink.com 1.10,2013-05-13 11:46:00,
2013-05-13 06:01:00,70.2,41.0,29.84,West,275,4.0,-999.0,35,-99.99,,,0.00,19,weatherlink.com 1.10,2013-05-13 12:01:00,
2013-05-13 06:16:00,69.9,41.0,29.85,West,273,2.0,-999.0,35,-99.99,,,0.00,33,weatherlink.com 1.10,2013-05-13 12:16:00,
2013-05-13 06:31:00,69.9,42.0,29.85,WNW,287,4.0,-999.0,36,-99.99,,,0.00,49,weatherlink.com 1.10,2013-05-13 12:31:00,
2013-05-13 06:46:00,70.7,42.0,29.85,WNW,292,4.0,-999.0,35,-99.99,,,0.00,77,weatherlink.com 1.10,2013-05-13 12:46:00,
2013-05-13 07:01:00,71.4,43.0,29.86,West,279,3.0,-999.0,36,-99.99,,,0.00,118,weatherlink.com 1.10,2013-05-13 13:01:00,
2013-05-13 07:16:00,72.5,43.0,29.86,WNW,286,3.0,-999.0,35,-99.99,,,0.00,141,weatherlink.com 1.10,2013-05-13 13:16:00,
2013-05-13 07:31:00,73.5,43.0,29.86,West,273,5.0,-999.0,34,-99.99,,,0.00,130,weatherlink.com 1.10,2013-05-13 13:31:00,
2013-05-13 07:46:00,74.2,44.0,29.86,WNW,288,2.0,-999.0,34,-99.99,,,0.00,165,weatherlink.com 1.10,2013-05-13 13:46:00,
2013-05-13 08:01:00,75.1,45.0,29.87,WNW,300,0.0,-999.0,34,-99.99,,,0.00,176,weatherlink.com 1.10,2013-05-13 14:01:00,
2013-05-13 08:16:00,75.8,45.0,29.86,WNW,297,1.0,-999.0,33,-99.99,,,0.00,190,weatherlink.com 1.10,2013-05-13 14:16:00,
2013-05-13 08:32:00,76.6,45.0,29.86,WNW,288,2.0,-999.0,33,-99.99,,,0.00,274,weatherlink.com 1.10,2013-05-13 14:32:00,
2013-05-13 08:47:00,77.7,46.0,29.86,WNW,288,2.0,-999.0,33,-99.99,,,0.00,341,weatherlink.com 1.10,2013-05-13 14:47:00,
2013-05-13 09:02:00,79.4,47.0,29.86,WNW,294,0.0,-999.0,32,-99.99,,,0.00,425,weatherlink.com 1.10,2013-05-13 15:02:00,
2013-05-13 09:17:00,80.9,47.0,29.86,West,279,3.0,-999.0,30,-99.99,,,0.00,531,weatherlink.com 1.10,2013-05-13 15:17:00,
2013-05-13 09:32:00,82.5,46.0,29.86,WNW,282,0.0,-999.0,28,-99.99,,,0.00,508,weatherlink.com 1.10,2013-05-13 15:32:00,
2013-05-13 09:47:00,84.8,47.0,29.85,NW,321,5.0,-999.0,27,-99.99,,,0.00,568,weatherlink.com 1.10,2013-05-13 15:47:00,
2013-05-13 10:02:00,87.1,45.0,29.85,North,349,3.0,-999.0,23,-99.99,,,0.00,677,weatherlink.com 1.10,2013-05-13 16:02:00,
2013-05-13 10:17:00,87.3,44.0,29.85,NNW,342,5.0,-999.0,22,-99.99,,,0.00,589,weatherlink.com 1.10,2013-05-13 16:17:00,
2013-05-13 10:32:00,87.8,44.0,29.85,North,355,5.0,-999.0,22,-99.99,,,0.00,570,weatherlink.com 1.10,2013-05-13 16:32:00,
2013-05-13 10:47:00,87.7,46.0,29.85,NNW,346,5.0,-999.0,23,-99.99,,,0.00,399,weatherlink.com 1.10,2013-05-13 16:47:00,
2013-05-13 11:02:00,88.9,45.0,29.84,NNW,341,3.0,-999.0,22,-99.99,,,0.00,654,weatherlink.com 1.10,2013-05-13 17:02:00,
2013-05-13 11:17:00,89.7,46.0,29.84,North,350,2.0,-999.0,22,-99.99,,,0.00,874,weatherlink.com 1.10,2013-05-13 17:17:00,
2013-05-13 11:32:00,90.1,44.0,29.84,North,9,3.0,-999.0,20,-99.99,,,0.00,933,weatherlink.com 1.10,2013-05-13 17:32:00,
2013-05-13 11:47:00,90.8,45.0,29.83,North,10,11.0,-999.0,20,-99.99,,,0.00,870,weatherlink.com 1.10,2013-05-13 17:47:00,
2013-05-13 12:02:00,88.7,45.0,29.83,North,355,3.0,-999.0,22,-99.99,,,0.00,448,weatherlink.com 1.10,2013-05-13 18:02:00,
2013-05-13 12:17:00,88.4,46.0,29.83,NNW,338,5.0,-999.0,23,-99.99,,,0.00,819,weatherlink.com 1.10,2013-05-13 18:17:00,
2013-05-13 12:32:00,89.8,44.0,29.82,North,11,6.0,-999.0,20,-99.99,,,0.00,877,weatherlink.com 1.10,2013-05-13 18:32:00,
2013-05-13 12:47:00,90.1,45.0,29.82,NNE,25,7.0,-999.0,21,-99.99,,,0.00,912,weatherlink.com 1.10,2013-05-13 18:47:00,
2013-05-13 13:02:00,90.0,45.0,29.81,NNE,21,7.0,-999.0,21,-99.99,,,0.00,900,weatherlink.com 1.10,2013-05-13 19:02:00,
2013-05-13 13:17:00,89.8,46.0,29.81,NNE,32,5.0,-999.0,22,-99.99,,,0.00,918,weatherlink.com 1.10,2013-05-13 19:17:00,
2013-05-13 13:32:00,88.4,46.0,29.80,NNE,33,7.0,-999.0,23,-99.99,,,0.00,956,weatherlink.com 1.10,2013-05-13 19:32:00,
2013-05-13 13:47:00,89.9,45.0,29.81,NE,34,4.0,-999.0,21,-99.99,,,0.00,283,weatherlink.com 1.10,2013-05-13 19:47:00,
2013-05-13 14:02:00,86.8,46.0,29.81,NNE,30,5.0,-999.0,24,-99.99,,,0.00,135,weatherlink.com 1.10,2013-05-13 20:02:00,
2013-05-13 14:17:00,86.6,45.0,29.82,NNE,31,0.0,-999.0,23,-99.99,,,0.00,188,weatherlink.com 1.10,2013-05-13 20:17:00,
2013-05-13 14:33:00,87.8,44.0,29.81,NNE,31,0.0,-999.0,22,-99.99,,,0.00,292,weatherlink.com 1.10,2013-05-13 20:33:00,
2013-05-13 14:48:00,89.0,45.0,29.80,ESE,111,0.0,-999.0,22,-99.99,,,0.00,274,weatherlink.com 1.10,2013-05-13 20:48:00,
2013-05-13 15:03:00,89.7,46.0,29.80,NNE,27,1.0,-999.0,22,-99.99,,,0.00,837,weatherlink.com 1.10,2013-05-13 21:03:00,
2013-05-13 15:18:00,92.5,47.0,29.79,NNE,27,0.0,-999.0,21,-99.99,,,0.00,598,weatherlink.com 1.10,2013-05-13 21:18:00,
2013-05-13 15:33:00,91.0,45.0,29.79,SE,127,2.0,-999.0,20,-99.99,,,0.00,165,weatherlink.com 1.10,2013-05-13 21:33:00,
2013-05-13 15:48:00,89.7,45.0,29.78,SSW,192,0.0,-999.0,21,-99.99,,,0.00,153,weatherlink.com 1.10,2013-05-13 21:48:00,
2013-05-13 16:03:00,89.7,46.0,29.77,East,93,0.0,-999.0,22,-99.99,,,0.00,670,weatherlink.com 1.10,2013-05-13 22:03:00,
2013-05-13 16:18:00,91.5,48.0,29.76,WSW,248,0.0,-999.0,22,-99.99,,,0.00,621,weatherlink.com 1.10,2013-05-13 22:18:00,
2013-05-13 16:33:00,91.4,48.0,29.75,SW,225,0.0,-999.0,22,-99.99,,,0.00,578,weatherlink.com 1.10,2013-05-13 22:33:00,
2013-05-13 16:48:00,91.1,46.0,29.75,SSW,197,0.0,-999.0,21,-99.99,,,0.00,552,weatherlink.com 1.10,2013-05-13 22:48:00,
2013-05-13 17:03:00,91.2,46.0,29.74,South,182,0.0,-999.0,21,-99.99,,,0.00,506,weatherlink.com 1.10,2013-05-13 23:03:00,
2013-05-13 17:18:00,90.1,46.0,29.74,SE,136,2.0,-999.0,22,-99.99,,,0.00,461,weatherlink.com 1.10,2013-05-13 23:18:00,
2013-05-13 17:33:00,90.3,47.0,29.73,SE,146,1.0,-999.0,22,-99.99,,,0.00,360,weatherlink.com 1.10,2013-05-13 23:33:00,
2013-05-13 17:48:00,89.4,46.0,29.72,ESE,115,0.0,-999.0,22,-99.99,,,0.00,227,weatherlink.com 1.10,2013-05-13 23:48:00,
2013-05-13 18:04:00,88.9,47.0,29.72,ESE,115,0.0,-999.0,23,-99.99,,,0.00,276,weatherlink.com 1.10,2013-05-14 00:04:00,
2013-05-13 18:19:00,87.9,47.0,29.71,East,91,2.0,-999.0,24,-99.99,,,0.00,199,weatherlink.com 1.10,2013-05-14 00:19:00,
2013-05-13 18:33:00,86.9,47.0,29.71,SE,131,0.0,-999.0,25,-99.99,,,0.00,134,weatherlink.com 1.10,2013-05-14 00:33:00,
2013-05-13 18:48:00,86.7,47.0,29.70,SE,124,2.0,-999.0,25,-99.99,,,0.00,197,weatherlink.com 1.10,2013-05-14 00:48:00,
2013-05-13 19:03:00,86.6,47.0,29.70,ESE,122,1.0,-999.0,25,-99.99,,,0.00,141,weatherlink.com 1.10,2013-05-14 01:03:00,
2013-05-13 19:18:00,85.7,48.0,29.70,ESE,122,3.0,-999.0,27,-99.99,,,0.00,84,weatherlink.com 1.10,2013-05-14 01:18:00,
2013-05-13 19:33:00,84.3,49.0,29.70,ESE,122,0.0,-999.0,29,-99.99,,,0.00,26,weatherlink.com 1.10,2013-05-14 01:33:00,
2013-05-13 19:48:00,82.6,49.0,29.69,ESE,122,0.0,-999.0,31,-99.99,,,0.00,14,weatherlink.com 1.10,2013-05-14 01:48:00,
2013-05-13 20:03:00,80.8,50.0,29.69,ESE,122,0.0,-999.0,34,-99.99,,,0.00,5,weatherlink.com 1.10,2013-05-14 02:03:00,
2013-05-13 20:18:00,78.7,51.0,29.69,ESE,122,0.0,-999.0,38,-99.99,,,0.00,0,weatherlink.com 1.10,2013-05-14 02:18:00,
2013-05-13 20:33:00,76.7,51.0,29.68,ESE,122,0.0,-999.0,40,-99.99,,,0.00,0,weatherlink.com 1.10,2013-05-14 02:33:00,
2013-05-13 20:48:00,74.7,51.0,29.68,ESE,122,0.0,-999.0,43,-99.99,,,0.00,0,weatherlink.com 1.10,2013-05-14 02:48:00,
2013-05-13 21:03:00,72.9,50.0,29.68,ESE,122,0.0,-999.0,44,-99.99,,,0.00,0,weatherlink.com 1.10,2013-05-14 03:03:00,
2013-05-13 21:18:00,71.2,49.0,29.67,ESE,122,0.0,-999.0,45,-99.99,,,0.00,0,weatherlink.com 1.10,2013-05-14 03:18:00,
2013-05-13 21:33:00,70.4,46.0,29.67,ESE,122,0.0,-999.0,42,-99.99,,,0.00,0,weatherlink.com 1.10,2013-05-14 03:33:00,
2013-05-13 21:48:00,70.9,47.0,29.67,ESE,122,0.0,-999.0,42,-99.99,,,0.00,0,weatherlink.com 1.10,2013-05-14 03:48:00,
2013-05-13 22:03:00,69.4,46.0,29.67,ESE,122,0.0,-999.0,44,-99.99,,,0.00,0,weatherlink.com 1.10,2013-05-14 04:03:00,
2013-05-13 22:18:00,68.3,46.0,29.66,ESE,122,0.0,-999.0,45,-99.99,,,0.00,0,weatherlink.com 1.10,2013-05-14 04:18:00,
2013-05-13 22:33:00,67.7,45.0,29.66,ESE,122,0.0,-999.0,45,-99.99,,,0.00,0,weatherlink.com 1.10,2013-05-14 04:33:00,
2013-05-13 22:48:00,66.6,46.0,29.65,ESE,122,0.0,-999.0,47,-99.99,,,0.00,0,weatherlink.com 1.10,2013-05-14 04:48:00,
2013-05-13 23:03:00,65.7,45.0,29.64,ESE,122,0.0,-999.0,48,-99.99,,,0.00,0,weatherlink.com 1.10,2013-05-14 05:03:00,
2013-05-13 23:18:00,65.2,45.0,29.63,ESE,122,0.0,-999.0,49,-99.99,,,0.00,0,weatherlink.com 1.10,2013-05-14 05:18:00,
2013-05-13 23:34:00,64.7,45.0,29.62,ESE,122,0.0,-999.0,49,-99.99,,,0.00,0,weatherlink.com 1.10,2013-05-14 05:34:00,
2013-05-13 23:49:00,64.5,45.0,29.62,ESE,122,0.0,-999.0,49,-99.99,,,0.00,0,weatherlink.com 1.10,2013-05-14 05:49:00,